BEE104 EGTE-EGJJ

Flight info

Callsign BEE104
Flight time 0h 31m
Altitude 10000
Route DAWLY L149 BIGNO
Aircraft DH8D/M-SDE2E3FGRY/H

Departure

Time 2026-04-21 08:51
Airport Exeter International Airport (EGTE)

Arrival

Time 2026-04-21 09:22
Airport Jersey Airport (EGJJ)
Time Latitude Longitude Altitude Speed Heading
2026-04-21 08:35 50.73093 -3.41814 108 ft 0 kts 131°
2026-04-21 08:42 50.73094 -3.41816 108 ft 1 kts 131°
2026-04-21 08:43 50.73106 -3.41836 108 ft 3 kts 139°
2026-04-21 08:43 50.73122 -3.41854 108 ft 3 kts 152°
2026-04-21 08:43 50.73140 -3.41865 108 ft 3 kts 177°
2026-04-21 08:43 50.73157 -3.41859 108 ft 3 kts 224°
2026-04-21 08:44 50.73162 -3.41848 108 ft 1 kts 239°
2026-04-21 08:44 50.73163 -3.41845 108 ft 0 kts 239°
2026-04-21 08:47 50.73160 -3.41853 108 ft 3 kts 239°
2026-04-21 08:47 50.73143 -3.41899 108 ft 6 kts 239°
2026-04-21 08:48 50.73119 -3.41971 108 ft 8 kts 246°
2026-04-21 08:48 50.73091 -3.42064 108 ft 10 kts 243°
2026-04-21 08:48 50.73058 -3.42177 108 ft 12 kts 257°
2026-04-21 08:48 50.73061 -3.42320 108 ft 14 kts 272°
2026-04-21 08:49 50.73064 -3.42483 108 ft 16 kts 271°
2026-04-21 08:49 50.73080 -3.42660 108 ft 17 kts 287°
2026-04-21 08:49 50.73136 -3.42761 108 ft 10 kts 334°
2026-04-21 08:49 50.73188 -3.42782 108 ft 6 kts 18°
2026-04-21 08:50 50.73210 -3.42749 108 ft 3 kts 64°
2026-04-21 08:50 50.73211 -3.42743 108 ft 0 kts 71°
2026-04-21 08:50 50.73213 -3.42734 108 ft 6 kts 72°
2026-04-21 08:50 50.73273 -3.42356 108 ft 75 kts 76°
2026-04-21 08:51 50.73459 -3.41205 166 ft 130 kts 72°
2026-04-21 08:51 50.73681 -3.39883 946 ft 124 kts 79°
2026-04-21 08:51 50.73448 -3.38583 1548 ft 138 kts 124°
2026-04-21 08:51 50.72551 -3.37842 2017 ft 164 kts 163°
2026-04-21 08:52 50.71357 -3.37997 2549 ft 182 kts 188°
2026-04-21 08:52 50.70180 -3.38703 3279 ft 181 kts 192°
2026-04-21 08:52 50.69012 -3.39433 4026 ft 181 kts 191°
2026-04-21 08:52 50.67831 -3.40113 4739 ft 182 kts 190°
2026-04-21 08:53 50.66625 -3.40520 5450 ft 172 kts 170°
2026-04-21 08:53 50.65455 -3.40154 6131 ft 172 kts 153°
2026-04-21 08:53 50.64358 -3.39506 6769 ft 176 kts 152°
2026-04-21 08:53 50.63237 -3.38819 7424 ft 179 kts 152°
2026-04-21 08:54 50.62121 -3.38137 8056 ft 182 kts 153°
2026-04-21 08:54 50.60961 -3.37434 8691 ft 185 kts 153°
2026-04-21 08:54 50.59793 -3.36734 9311 ft 188 kts 154°
2026-04-21 08:54 50.58605 -3.36022 9913 ft 193 kts 155°
2026-04-21 08:55 50.57367 -3.35265 10216 ft 215 kts 155°
2026-04-21 08:55 50.55976 -3.34414 10301 ft 242 kts 156°
2026-04-21 08:55 50.54483 -3.33522 10314 ft 268 kts 158°
2026-04-21 08:55 50.52861 -3.32586 10304 ft 287 kts 158°
2026-04-21 08:56 50.51106 -3.31609 10299 ft 302 kts 159°
2026-04-21 08:56 50.49300 -3.30632 10295 ft 313 kts 159°
2026-04-21 08:56 50.47501 -3.29349 10292 ft 321 kts 148°
2026-04-21 08:56 50.45956 -3.27551 10291 ft 327 kts 138°
2026-04-21 08:57 50.44492 -3.25360 10281 ft 327 kts 134°
2026-04-21 08:57 50.43111 -3.23130 10283 ft 321 kts 133°
2026-04-21 08:57 50.41750 -3.20874 10283 ft 317 kts 132°
2026-04-21 08:57 50.40431 -3.18663 10283 ft 314 kts 132°
2026-04-21 08:58 50.39089 -3.16419 10282 ft 312 kts 132°
2026-04-21 08:58 50.37735 -3.14230 10278 ft 309 kts 135°
2026-04-21 08:58 50.36239 -3.12408 10279 ft 306 kts 145°
2026-04-21 08:58 50.34636 -3.10939 10280 ft 304 kts 150°
2026-04-21 08:59 50.32981 -3.09553 10278 ft 301 kts 151°
2026-04-21 08:59 50.31357 -3.08235 10277 ft 299 kts 152°
2026-04-21 08:59 50.29682 -3.06892 10275 ft 297 kts 152°
2026-04-21 08:59 50.28032 -3.05566 10274 ft 295 kts 151°
2026-04-21 09:00 50.26377 -3.04224 10272 ft 293 kts 151°
2026-04-21 09:00 50.24725 -3.02872 10271 ft 292 kts 151°
2026-04-21 09:00 50.23080 -3.01521 10269 ft 290 kts 150°
2026-04-21 09:00 50.21474 -3.00197 10268 ft 289 kts 150°
2026-04-21 09:01 50.19937 -2.98924 10266 ft 287 kts 150°
2026-04-21 09:01 50.18380 -2.97632 10264 ft 286 kts 150°
2026-04-21 09:01 50.16794 -2.96315 10263 ft 285 kts 150°
2026-04-21 09:01 50.15201 -2.94993 10261 ft 284 kts 150°
2026-04-21 09:02 50.13647 -2.93701 10259 ft 283 kts 150°
2026-04-21 09:02 50.12093 -2.92417 10258 ft 282 kts 151°
2026-04-21 09:02 50.10535 -2.91136 10256 ft 282 kts 151°
2026-04-21 09:03 50.07452 -2.88608 10253 ft 281 kts 151°
2026-04-21 09:03 50.05942 -2.87371 10251 ft 280 kts 151°
2026-04-21 09:03 50.04422 -2.86125 10249 ft 280 kts 151°
2026-04-21 09:03 50.02876 -2.84858 10247 ft 279 kts 150°
2026-04-21 09:04 50.01341 -2.83607 10245 ft 279 kts 151°
2026-04-21 09:04 49.99802 -2.82483 10242 ft 279 kts 157°
2026-04-21 09:04 49.98181 -2.81663 10243 ft 279 kts 163°
2026-04-21 09:04 49.96523 -2.80979 10241 ft 279 kts 165°
2026-04-21 09:05 49.94857 -2.80335 10239 ft 279 kts 165°
2026-04-21 09:05 49.93169 -2.79702 10237 ft 279 kts 165°
2026-04-21 09:05 49.91482 -2.79070 10235 ft 279 kts 165°
2026-04-21 09:05 49.89798 -2.78432 10234 ft 279 kts 165°
2026-04-21 09:06 49.88133 -2.77791 10232 ft 279 kts 165°
2026-04-21 09:06 49.86441 -2.77131 10230 ft 279 kts 165°
2026-04-21 09:06 49.84747 -2.76463 10229 ft 279 kts 165°
2026-04-21 09:06 49.83055 -2.75794 10227 ft 279 kts 165°
2026-04-21 09:07 49.81365 -2.75124 10226 ft 279 kts 165°
2026-04-21 09:07 49.79668 -2.74452 10224 ft 279 kts 165°
2026-04-21 09:07 49.77996 -2.73792 10223 ft 279 kts 165°
2026-04-21 09:07 49.76342 -2.73140 10222 ft 279 kts 165°
2026-04-21 09:08 49.74648 -2.72472 10221 ft 279 kts 165°
2026-04-21 09:08 49.72975 -2.71815 10220 ft 278 kts 165°
2026-04-21 09:08 49.71286 -2.71150 10219 ft 278 kts 165°
2026-04-21 09:08 49.69601 -2.70488 10216 ft 278 kts 165°
2026-04-21 09:09 49.67925 -2.69830 10214 ft 278 kts 165°
2026-04-21 09:09 49.66234 -2.69167 10213 ft 278 kts 165°
2026-04-21 09:09 49.64554 -2.68509 10213 ft 278 kts 165°
2026-04-21 09:09 49.62878 -2.67853 10212 ft 278 kts 165°
2026-04-21 09:10 49.61168 -2.67185 10212 ft 278 kts 165°
2026-04-21 09:10 49.59506 -2.66535 10212 ft 278 kts 165°
2026-04-21 09:10 49.57829 -2.65880 10212 ft 278 kts 165°
2026-04-21 09:10 49.56149 -2.65224 10212 ft 278 kts 165°
2026-04-21 09:11 49.54455 -2.64563 10212 ft 278 kts 165°
2026-04-21 09:11 49.52797 -2.63916 10212 ft 278 kts 165°
2026-04-21 09:11 49.51133 -2.63268 10212 ft 278 kts 165°
2026-04-21 09:11 49.49399 -2.62593 10029 ft 280 kts 165°
2026-04-21 09:12 49.47662 -2.61920 9607 ft 281 kts 165°
2026-04-21 09:12 49.45969 -2.61280 9202 ft 279 kts 165°
2026-04-21 09:12 49.44272 -2.60632 8802 ft 276 kts 163°
2026-04-21 09:12 49.42613 -2.59750 8401 ft 270 kts 155°
2026-04-21 09:13 49.41099 -2.58707 8018 ft 261 kts 153°
2026-04-21 09:13 49.39673 -2.57680 7656 ft 253 kts 152°
2026-04-21 09:13 49.38267 -2.56656 7298 ft 246 kts 152°
2026-04-21 09:13 49.36908 -2.55671 6953 ft 239 kts 151°
2026-04-21 09:14 49.35598 -2.54727 6620 ft 233 kts 151°
2026-04-21 09:14 49.34300 -2.53798 6301 ft 226 kts 151°
2026-04-21 09:14 49.33169 -2.52996 6046 ft 217 kts 151°
2026-04-21 09:14 49.31904 -2.52100 5705 ft 211 kts 150°
2026-04-21 09:15 49.30720 -2.51263 5388 ft 205 kts 150°
2026-04-21 09:15 49.29551 -2.50439 5081 ft 198 kts 150°
2026-04-21 09:15 49.28415 -2.49645 4787 ft 191 kts 149°
2026-04-21 09:15 49.27319 -2.48882 4505 ft 183 kts 149°
2026-04-21 09:16 49.26251 -2.48139 4232 ft 175 kts 148°
2026-04-21 09:16 49.25239 -2.47435 3972 ft 165 kts 148°
2026-04-21 09:16 49.24277 -2.46768 3726 ft 155 kts 147°
2026-04-21 09:16 49.23369 -2.46135 3510 ft 155 kts 146°
2026-04-21 09:17 49.22419 -2.45450 3290 ft 167 kts 146°
2026-04-21 09:17 49.21427 -2.44723 3040 ft 177 kts 146°
2026-04-21 09:17 49.20354 -2.43939 2768 ft 188 kts 147°
2026-04-21 09:17 49.19236 -2.43118 2504 ft 196 kts 147°
2026-04-21 09:18 49.18172 -2.42093 2299 ft 192 kts 128°
2026-04-21 09:18 49.17671 -2.40461 2265 ft 173 kts 96°
2026-04-21 09:18 49.17743 -2.38805 2220 ft 163 kts 80°
2026-04-21 09:18 49.18025 -2.37291 2190 ft 154 kts 72°
2026-04-21 09:19 49.18373 -2.35906 2178 ft 144 kts 70°
2026-04-21 09:19 49.18716 -2.34591 2228 ft 142 kts 70°
2026-04-21 09:19 49.19064 -2.33245 2209 ft 149 kts 70°
2026-04-21 09:19 49.19435 -2.31783 2024 ft 159 kts 71°
2026-04-21 09:20 49.19738 -2.30281 1849 ft 150 kts 76°
2026-04-21 09:20 49.19963 -2.28784 1540 ft 149 kts 79°
2026-04-21 09:20 49.20131 -2.27268 1196 ft 152 kts 81°
2026-04-21 09:20 49.20254 -2.25723 952 ft 151 kts 83°
2026-04-21 09:21 49.20385 -2.24198 754 ft 143 kts 82°
2026-04-21 09:21 49.20504 -2.22764 584 ft 136 kts 83°
2026-04-21 09:21 49.20621 -2.21424 403 ft 126 kts 81°
2026-04-21 09:21 49.20737 -2.20220 297 ft 109 kts 82°
2026-04-21 09:22 49.20815 -2.19283 285 ft 65 kts 82°
2026-04-21 09:22 49.20845 -2.18927 285 ft 32 kts 83°
2026-04-21 09:22 49.20873 -2.18593 285 ft 22 kts 82°
2026-04-21 09:22 49.20846 -2.18396 285 ft 15 kts 154°
2026-04-21 09:23 49.20756 -2.18430 285 ft 16 kts 225°
2026-04-21 09:23 49.20725 -2.18561 285 ft 10 kts 263°
2026-04-21 09:23 49.20720 -2.18620 285 ft 2 kts 263°
2026-04-21 09:23 49.20714 -2.18695 285 ft 14 kts 263°
2026-04-21 09:24 49.20696 -2.18891 285 ft 23 kts 262°
2026-04-21 09:24 49.20677 -2.19127 285 ft 23 kts 263°
2026-04-21 09:24 49.20702 -2.19355 285 ft 23 kts 284°
2026-04-21 09:24 49.20687 -2.19581 285 ft 21 kts 245°
2026-04-21 09:25 49.20616 -2.19720 285 ft 14 kts 251°
2026-04-21 09:25 49.20602 -2.19828 285 ft 4 kts 262°
2026-04-21 09:25 49.20601 -2.19833 285 ft 0 kts 263°
2026-04-21 09:26 49.20600 -2.19854 285 ft 4 kts 263°
2026-04-21 09:26 49.20595 -2.19890 285 ft 6 kts 252°
2026-04-21 09:26 49.20560 -2.19925 285 ft 8 kts 181°
2026-04-21 09:27 49.20481 -2.19917 285 ft 10 kts 174°
2026-04-21 09:27 49.20427 -2.19839 285 ft 16 kts 87°
2026-04-21 09:27 49.20437 -2.19706 285 ft 8 kts 82°
2026-04-21 09:27 49.20460 -2.19678 285 ft 2 kts
2026-04-21 09:28 49.20470 -2.19676 285 ft 2 kts
2026-04-21 09:28 49.20488 -2.19674 285 ft 3 kts
2026-04-21 09:28 49.20495 -2.19673 285 ft 0 kts